Погода в Андимешке

Иран     33°29′09″N   48°21′10″E
темп.,
°C
ветер,
м/с
пор.,
м/с
влажн.,
%
обл.,
%
осадки,
мм/ч
давл.,
гПа
погр.,
м
28 сентября, вт
вт2800:30+18юв12170 0.0 100911
03:30+16вюв11200 0.0 100911
06:30+16вюв11220 0.0 101111
09:30+25ю11120 0.0 1011539
12:30+30зюз6760 0.0 10082151
15:30+30зюз7660 0.0 10081977
18:30+23юз22110 0.0 100911
21:30+20ю11120 0.0 101011
29 сентября, ср
ср2900:30+18сз01140 0.0 101111
03:30+17всв11150 0.0 101111
06:30+17св11170 0.0 101211
09:30+26юв0080 0.0 1012466
12:30+30зюз35100 0.0 10092228
15:30+30зюз67130 0.0 10082668
18:30+24юз22190 0.0 100911
21:30+21юз11200 0.0 101111
30 сентября, чт
чт3000:30+19с12260 0.0 101111
03:30+19в22280 0.0 101211
06:30+19в33260 0.0 101215
09:30+27в01170 0.0 1012622
12:30+30зюз56163 0.0 10103476
15:30+30зюз66142 0.0 10093660
18:30+25зюз22205 0.0 101011
21:30+21сз11230 0.0 101211
1 октября, пт
пт100:30+19всв11250 0.0 101211
03:30+18всв11260 0.0 101211
06:30+18всв11280 0.0 101311
09:30+27в11160 0.0 1013483
12:30+30зюз22100 0.0 10103693
15:30+31юз2290 0.0 10093779
18:30+25з22140 0.0 100911
21:30+22ссз12180 0.0 101111
2 октября, сб
сб200:30+20св22201 0.0 101211
03:30+19св22230 0.0 101211
06:30+18всв22300 0.0 101311
09:30+25всв12200 0.0 1013491
12:30+30ю02140 0.0 10102361
15:30+31зсз24110 0.0 10083471
18:30+25зюз11140 0.0 100911
21:30+23ссз11160 0.0 101111